BEIDOU-3 M15 (C34)

Last updated on Mon Oct 20 2025 00:03:25 GMT+0000 (Coordinated Universal Time)

1 43648U 18078B 25292.05923141 -.00000064 00000+0 00000+0 0 9993 2 43648 54.3057 308.4338 0002682 17.7884 342.2565 1.86232326 47688
UTC large
Height (km)
Speed (km/s)
/
Latitude / Longitude
Inclination (degrees)
Orbital Period (minutes)
Azimuth
Elevation
Range (km)
Doppler Factor

Next 0 passes for location: London (51.5072 / 0.1276)

Sorry there are no passes over London.